User: anonymous   Login
Location: Unspecified
(0.0000°N, 0.0000°E)
Time: 11:51:26
(UTC+00:00)
Language:

Transit 4B - Orbit

View from above orbital plane
View from above orbital plane
View from above satellite
View from above satellite

Ground track
Ground track

The orbit data is extracted from the following two-line orbital elements,

1   202U 61031A   18347.67258310 +.00000044 +00000-0 +24917-4 0  9995
2   202 032.4398 055.0982 0101449 268.1832 090.7167 13.63521230846434
Epoch (UTC): 13 December 2018 16:08:31
Eccentricity: 0.0101449
inclination: 32.4398°
perigee height: 948 km
apogee height: 1098 km
right ascension of ascending node: 55.0982°
argument of perigee: 268.1832°
revolutions per day: 13.63521230
mean anomaly at epoch: 90.7167°
orbit number at epoch: 84643

The dashed part of the orbit path shows where the satellite is in the earth's shadow,  

DLR